This is the latest recevied weather packets stored in our database for station/object KJ5BMY-13. If no packets are shown the sender has not sent any weather packets the latest 1 day(s).
| Time | Temp. | Humidity | Pressure | Rain* | Wind** | Luminosity | Snow |
|---|---|---|---|---|---|---|---|
| 1778023991 | 29.44° C | 53% | 1006.5 hPa | 0 mm | 0 m/s | - | - |
| 1778023688 | 30° C | 67% | 1006.4 hPa | 0 mm | 0.45 m/s, 12° | - | - |
| 1778023385 | 30° C | 66% | 1006.1 hPa | 0 mm | 0.89 m/s, 214° | - | - |
| 1778023081 | 30° C | 66% | 1006 hPa | 0 mm | 1.79 m/s, 164° | - | - |
| 1778022780 | 30.56° C | 65% | 1005.9 hPa | 0 mm | 1.79 m/s, 135° | - | - |
| 1778022478 | 30.56° C | 64% | 1005.7 hPa | 0 mm | 0.45 m/s, 97° | - | - |
| 1778022174 | 30.56° C | 64% | 1005.7 hPa | 0 mm | 1.34 m/s, 148° | - | - |
| 1778021871 | 31.11° C | 63% | 1005.8 hPa | 0 mm | 0.89 m/s, 67° | - | - |
| 1778021568 | 31.11° C | 62% | 1005.8 hPa | 0 mm | 0.45 m/s, 349° | - | - |
| 1778021263 | 32.22° C | 60% | 1005.8 hPa | 0 mm | 2.24 m/s, 99° | - | - |
| 1778020961 | 32.22° C | 58% | 1005.7 hPa | 0 mm | 0.89 m/s, 230° | - | - |
| 1778020658 | 32.22° C | 56% | 1005.8 hPa | 0 mm | 0.89 m/s, 26° | - | - |
| 1778020355 | 32.22° C | 53% | 1005.5 hPa | 0 mm | 0 m/s | - | - |
| 1778020051 | 32.22° C | 52% | 1005.6 hPa | 0 mm | 0.89 m/s, 95° | - | - |
| 1778019747 | 32.22° C | 53% | 1005.4 hPa | 0 mm | 0.89 m/s, 322° | - | - |
| 1778019444 | 32.22° C | 53% | 1005.3 hPa | 0 mm | 0.45 m/s, 209° | - | - |
| 1778019141 | 32.78° C | 51% | 1005.7 hPa | 0 mm | 0.45 m/s, 86° | - | - |
| 1778018838 | 33.33° C | 51% | 1005.4 hPa | 0 mm | 1.34 m/s, 95° | - | - |
| 1778018536 | 34.44° C | 49% | 1005.6 hPa | 0 mm | 0.89 m/s, 219° | - | - |
| 1778018233 | 33.89° C | 50% | 1005.6 hPa | 0 mm | 0.45 m/s, 217° | - | - |
| 1778017931 | 34.44° C | 49% | 1005.7 hPa | 0 mm | 0 m/s | - | - |
| 1778017628 | 33.33° C | 51% | 1005.6 hPa | 0 mm | 0 m/s | - | - |
| 1778017326 | 32.78° C | 51% | 1005.8 hPa | 0 mm | 1.34 m/s, 171° | - | - |
| 1778017023 | 33.33° C | 51% | 1005.8 hPa | 0 mm | 0.45 m/s, 309° | - | - |
| 1778016720 | 33.33° C | 51% | 1005.8 hPa | 0 mm | 0.89 m/s, 15° | - | - |
* Rain latest hour (hover to see other rain measurements)
** Current wind speed in m/s (hover to see current wind gust speed)